Miscellaneous Local Product
Issued by NWS North Platte, NE

Home | Current Version | Previous Version | Text Only | Print | Product List | Glossary On
Versions: 1 2 3 4 5 6 7 8 9 10 11 12 13 14 15 16 17 18 19 20 21 22 23 24 25 26 27 28 29 30 31 32 33 34 35 36 37 38 39 40 41 42 43 44 45 46 47 48 49 50
000
AXUS43 KLBF 280110
MISLBF


WESTERN AND NORTH CENTRAL NEBRASKA HOURLY WEATHER ROUNDUP
NATIONAL WEATHER SERVICE NORTH PLATTE NE
800 PM CDT WED JUL 27 2016

NOTE: "FAIR" INDICATES FEW OR NO CLOUDS BELOW 12,000 FEET WITH NO
SIGNIFICANT WEATHER AND/OR OBSTRUCTIONS TO VISIBILITY.

NOTE: STATIONS NOT REPORTING VARIABLES SUCH AS SKY/WEATHER OR
PRESSURE ARE PROVIDED BY RAWS AND APRS NETWORKS AND ARE NOT UNDER
NATIONAL WEATHER SERVICE QUALITY CONTROL.

...OBSERVATIONS IN AND NEAR THE EASTERN PANHANDLE OF NEBRASKA...

CITY           SKY/WX    TMP DP  RH WIND       PRES   REMARKS
PINE RIDGE     SUNNY     77  63  61 E13       30.10R
CHADRON        SUNNY     78  55  44 NE13      30.08R
ALLIANCE       SUNNY     80  58  46 E17G23    30.10R
SIDNEY         CLOUDY    80  59  48 SE14      30.14R
CRESCENT LAKE    N/A     79  60  51 SE3G14      N/A
$$

...OBSERVATIONS IN NORTHERN NEBRASKA AND FAR SOUTHERN SOUTH DAKOTA...

CITY           SKY/WX    TMP DP  RH WIND       PRES   REMARKS
WINNER         TSTM      67  60  78 W18G35    30.09R
VALENTINE      CLOUDY    74  66  76 MISG      30.08S
THEDFORD       CLOUDY    75  60  59 E7        30.10R
AINSWORTH      CLOUDY    68  64  84 N6        30.09S
O`NEILL        RAIN      65  62  91 N8        30.07R
ORD            CLOUDY    73  62  68 N13       30.04R
BROKEN BOW     LGT RAIN  69  64  84 N5        30.07R
VALENTINE NWR    N/A     67  59  75 E10G18      N/A
BUTTE            N/A     71  67  86 CALM        N/A
HALSEY           N/A     72  56  57 E6G17       N/A
EWING            N/A     64  62  95 CALM        N/A
$$

...OBSERVATIONS IN SOUTHWEST NEBRASKA AND FAR NORTHEAST COLORADO...

CITY           SKY/WX    TMP DP  RH WIND       PRES   REMARKS
WRAY           FAIR      84  59  42 E8        30.06R
HOLYOKE        FAIR      81  63  54 E9        30.09R
IMPERIAL       PTSUNNY   85  59  41 NE13      30.06R
OGALLALA       SUNNY     83  58  43 E9        30.08R
NORTH PLATTE   SUNNY     82  64  54 NE6       30.04F
MCCOOK         SUNNY     84  65  52 E13       30.02R
LEXINGTON      CLEAR     81  69  67 E5        30.04S
STAPLETON        N/A     74  62  66 MISG        N/A
GOTHENBURG       N/A     83  67  57 E6          N/A
CALLAWAY         N/A     83  68  59 NW3         N/A
$$

...OBSERVATIONS IN CENTRAL LINCOLN COUNTY AREA...

CITY           SKY/WX    TMP DP  RH WIND       PRES   REMARKS
N.P. AIRPORT   SUNNY     82  64  54 NE6       30.04F
N.P. DOWNTOWN    N/A     83  64  51 NE6         N/A
N.P. SOUTHEAST   N/A     84  63  49 CALM        N/A
N.P. HILLCREST   N/A     82  60  47 E8          N/A
$$

...SOME OBSERVATIONS FROM AROUND THE REGION...

CITY           SKY/WX    TMP DP  RH WIND       PRES   REMARKS
DENVER         PTSUNNY   87  49  26 NE25G36   30.13R
LARAMIE        SUNNY     83  22  10 NW12G21   30.26S
CHEYENNE       SUNNY     77  55  46 SE7       30.21R
SCOTTSBLUFF    CLOUDY    83  55  38 E10       30.08R
RAPID CITY     SUNNY     79  58  48 NE7       30.11R
BISMARCK       CLOUDY    73  60  63 E8        30.10R
PIERRE         PTSUNNY   72  63  73 E7        30.04S
SIOUX FALLS    MOCLDY    76  64  66 N7        29.99R
OMAHA          MOCLDY    84  71  65 N6        29.92S
GRAND ISLAND   CLEAR     83  65  54 NE6       30.02R
KANSAS CITY    MOCLDY    85  71  63 W3        29.91S HX  90
WICHITA        PTCLDY    88  68  51 E6        29.92S HX  91
OKLAHOMA CITY  CLOUDY    75  72  90 S6        29.92F
DALLAS         MOCLDY    87  72  60 E5        29.87F HX  93
AMARILLO       CLEAR     84  58  40 SE7       30.04R
DODGE CITY     CLOUDY    81  67  62 CALM      29.98F
HAYS           CLEAR     90  66  45 SE7       29.95S HX  92
GOODLAND       SUNNY     87  60  40 SE12      30.03F
$$




USA.gov is the U.S. government's official web portal to all federal, state and local government web resources and services.